Regional Weather Roundup
Issued by NWS

Home | Current Version | Previous Version | Text Only | Print | Product List | Glossary Off
Versions: 1 2 3 4 5 6 7 8 9 10 11 12 13 14 15 16 17 18 19 20 21 22 23 24 25 26 27 28 29 30 31 32 33 34 35 36 37 38 39 40 41 42 43 44 45 46 47 48 49 50

663
ASUS43 KMKX 131110
RWRWI

WISCONSIN REGIONAL WEATHER ROUNDUP
NATIONAL WEATHER SERVICE MILWAUKEE/SULLIVAN WI
500 AM CST SAT FEB 13 2016

NOTE: "FAIR" INDICATES FEW OR NO CLOUDS BELOW 12,000 FEET WITH NO
SIGNIFICANT WEATHER AND/OR OBSTRUCTIONS TO VISIBILITY.

WIZ001-002-006>008-014>016-023>028-131200-
NORTHWEST WISCONSIN

CITY           SKY/WX    TMP DP  RH WIND       PRES   REMARKS
SUPERIOR ARPT  CLOUDY   -10 -19  67 NW9       30.63S WCI -28
ASHLAND        CLOUDY    -5 -10  79 N6        30.57S WCI -18
HAYWARD        CLOUDY   -14 -21  71 SW3       30.55R
SIREN          PTCLDY   -13 -19  73 CALM      30.61S
CUMBERLAND     PTCLDY   -11 -20  64 W3        30.55S
RICE LAKE      PTCLDY   -11 -19  67 SW3       30.60R
CHETEK         PTCLDY   -10 -18  67 CALM      30.58S
LADYSMITH      CLOUDY   -10 -18  67 W6        30.55S WCI -24
EAU CLAIRE     PTCLDY    -9 -19  61 CALM      30.60S
MENOMONIE      PTCLDY    -6 -18  57 W5        30.61S WCI -17
NEW RICHMOND   CLOUDY   -10 -18  66 CALM      30.61S
OSCEOLA        CLOUDY    -6 -15  65 NW6       30.65S WCI -19
$$

WIZ003>005-009-010-017-018-131200-
NORTH CENTRAL WISCONSIN

CITY           SKY/WX    TMP DP  RH WIND       PRES   REMARKS
MANITOWISH WTR PTCLDY   -10 -14  79 NW9       30.41R WCI -27
ARBOR VITAE    CLOUDY    -6 -11  79 NW5       30.41R WCI -17
WOODRUFF       CLOUDY    -6 -11  79 NW5       30.41R WCI -17
RHINELANDER    CLOUDY    -9 -15  75 W12       30.41R WCI -28
EAGLE RIVER    PTCLDY    -8 -15  73 W9        30.38R WCI -26
LAND O LAKES   MOCLDY    -2  -7  80 NW5       30.37S WCI -12
PHILLIPS       CLOUDY   -14 -18  82 W3        30.47R
TOMAHAWK       CLOUDY   -10 -15  79 W6        30.46R WCI -24
MEDFORD        CLOUDY   -11 -18  70 W6        30.47R WCI -25
MERRILL        CLOUDY    -8 -15  71 CALM      30.48S
$$

WIZ029-030-035-036-043>047-131200-
CENTRAL WISCONSIN

CITY           SKY/WX    TMP DP  RH WIND       PRES   REMARKS
WAUSAU         CLOUDY    -6 -14  68 NW8       30.48R WCI -21
MOSINEE        NOT AVBL
MARSHFIELD     CLOUDY    -8 -19  58 NW13      30.50R WCI -28
STEVENS POINT  CLOUDY    -8 -16  67 CALM      30.51R
WAUPACA        PTCLDY    -2 -14  56 W7        30.53R WCI -16
WAUTOMA        MOCLDY    -7 -18  59 W10       30.55R WCI -25
WISC RAPIDS    CLOUDY    -6 -18  56 NW9       30.55R WCI -23
CAMP DOUGLAS   PTCLDY    -9 -17  66 W7        30.57R WCI -24
$$

WIZ011>013-019>022-031-037>040-048>050-131200-
NORTHEAST WISCONSIN

CITY           SKY/WX    TMP DP  RH WIND       PRES   REMARKS
ANTIGO         CLOUDY   -10 -15  78 NW12      30.42R WCI -29
SHAWANO        PTCLDY    -2 -12  64 W6        30.51R WCI -14
OCONTO         CLEAR     -6 -13  71 W7        30.50R WCI -20
STURGEON BAY   CLEAR     -2 -11  65 W14       30.47S WCI -21
GREEN BAY      PTCLDY    -4 -13  65 NW12      30.50S WCI -22
MANITOWOC      CLEAR     -2 -12  62 NW14      30.49R WCI -21
APPLETON       NOT AVBL
CLINTONVILLE   CLEAR     -4 -15  59 NW9       30.51S WCI -20
OSHKOSH        PTCLDY    -4 -15  59 W6        30.52R WCI -16
$$

WIZ032>034-041-042-053>061-131200-
SOUTHWEST WISCONSIN

CITY           SKY/WX    TMP DP  RH WIND       PRES   REMARKS
LA CROSSE      CLOUDY    -4 -16  56 N3        30.63S
SPARTA         MOCLDY    -6 -15  63 NW3       30.60S
VIROQUA        CLOUDY    -6 -17  61 N7        30.53S WCI -21
BOSCOBEL       CLOUDY    -7 -14  71 CALM      30.62S
PRAIRIE DU CHI CLOUDY    -1 -13  54 CALM      30.62S
PLATTEVILLE    CLOUDY    -2 -11  65 NW6       30.56S WCI -14
$$

WIZ056-057-062-063-064-067-068-131200-
SOUTH CENTRAL WISCONSIN

CITY           SKY/WX    TMP DP  RH WIND       PRES   REMARKS
REEDSBURG      PTCLDY    -4 -16  58 CALM      30.57R
BARABOO/DELLS  PTCLDY    -3 -17  52 NW5       30.55R WCI -14
LONE ROCK      CLOUDY    -4 -15  59 W6        30.60S WCI -16
MINERAL POINT  CLOUDY     0 -15  50 NW8       30.53S WCI -15
MADISON        CLEAR     -2 -15  54 NW6       30.55R WCI -14
MIDDLETON      CLEAR      0 -13  53 NW8       30.56R WCI -14
WATERTOWN      CLEAR     -1 -13  57 NW10      30.53R WCI -17
MONROE         CLEAR      1  -9  60 NW6       30.53S WCI -10
JANESVILLE     CLEAR      3  -9  55 NW8       30.55S WCI -10
$$

WIZ051-052-058>065-066-070>072-131200-
SOUTHEAST WISCONSIN

CITY           SKY/WX    TMP DP  RH WIND       PRES   REMARKS
MILWAUKEE      CLEAR      2 -13  49 NW10      30.52R WCI -14
WAUKESHA       CLEAR      0 -13  55 NW9       30.52R WCI -16
MILWAUKEE/TIMM PTCLDY     1 -15  46 NW9       30.52S WCI -14
RACINE         CLEAR      2 -13  49 NW10G17   30.53R WCI -14
BURLINGTON     CLEAR     -1 -13  56 NW9       30.53R WCI -17
KENOSHA        CLEAR      2 -11  54 NW12      30.52R WCI -15
FOND DU LAC    PTCLDY    -2 -14  56 NW15      30.51S WCI -22
SHEBOYGAN      CLEAR     -1 -13  56 NW13      30.49S WCI -19
WEST BEND      CLEAR      0 -15  50 NW3       30.49S
JUNEAU         CLEAR     -3 -15  57 NW8       30.53R WCI -18
$$

LSZ147-162-131200-
LAKE SUPERIOR

STATION/POSITION TIME  TEMP    WIND        PRES    WAVE
                       AIR SEA DIR/SP/G            HT/PER
                 (UTC) (F)     (DEG/KT/KT) (MB)    (FT/S)
DEVILS ISLAND    1100    0     340/ 13/ 15 1037.2R
SAXON HARBOR     1040    0                 1034.5R
$$

LMZ867-665-643>646-131200-
LAKE MICHIGAN

STATION/POSITION TIME  TEMP    WIND        PRES    WAVE
                       AIR SEA DIR/SP/G            HT/PER
                 (UTC) (F)     (DEG/KT/KT) (MB)    (FT/S)
CHAMBERS ISLAND  1000    0     280/  7/ 15 1030.5R
SISTER BAY       0834    1     320/ 20/ 23   N/A
ALGOMA LAKESHORE 0911          310/  7/ 11   N/A
KEWAUNEE LAKESHO 1000   -1     290/  9/ 12 1030.8R
SHEBOYGAN LAKESH 1100    0     290/ 14/ 17 1034.8R
PORT WASHINGTON  1000    1     300/ 10/ 13 1034.2R
MILWAUKEE LAKESH 1010    3     310/ 11/ 14   N/A
KENOSHA   LAKESH 1100    3     300/  8/ 13 1033.5R
$$

TC  - TEMPERATURE IN CELSIUS
VSB - VISIBILITY IN STATUTE MILES
WCI - WIND CHILL INDEX
HX  - HEAT INDEX





USA.gov is the U.S. government's official web portal to all federal, state and local government web resources and services.